• In Uzbekistan
  • List of Countries
  • For 7 days
  • Water Temperature
  • Satellite Maps
  • Weather Map
  • Weather Widgets
  • user-avatar
    Login

    Hourly Weather Barra

    Today, 23 March, Thursday

    Time Temperature Precipitation Wind Pressure Humidity
    00:00 +25°C° 0.5 mm 1 mps 746 mmHg 96%
    01:00 +23°C° 0.5 mm 0 mps 746 mmHg 96%
    02:00 +23°C° 0.2 mm 0 mps 745 mmHg 96%
    03:00 +23°C° 0.2 mm 0 mps 745 mmHg 96%
    04:00 +22°C° 0 mm 0 mps 745 mmHg 96%
    05:00 +25°C° 0 mm 1 mps 745 mmHg 95%
    06:00 +26°C° 0 mm 1 mps 745 mmHg 94%
    07:00 +26°C° 0 mm 1 mps 746 mmHg 93%
    08:00 +28°C° 0.4 mm 1 mps 746 mmHg 83%
    09:00 +30°C° 0.4 mm 1 mps 746 mmHg 74%
    10:00 +32°C° 0.4 mm 1 mps 746 mmHg 65%
    11:00 +34°C° 0.3 mm 2 mps 746 mmHg 63%
    12:00 +34°C° 0.3 mm 2 mps 746 mmHg 61%
    13:00 +35°C° 0.3 mm 3 mps 745 mmHg 59%
    14:00 +34°C° 0 mm 3 mps 745 mmHg 61%
    15:00 +34°C° 0 mm 3 mps 745 mmHg 64%
    16:00 +33°C° 0 mm 3 mps 744 mmHg 66%
    17:00 +30°C° 0 mm 2 mps 744 mmHg 74%
    18:00 +28°C° 0 mm 2 mps 745 mmHg 83%
    19:00 +26°C° 0 mm 2 mps 745 mmHg 91%
    20:00 +26°C° 0.2 mm 2 mps 745 mmHg 93%
    21:00 +26°C° 0.2 mm 1 mps 746 mmHg 94%
    22:00 +25°C° 0.2 mm 1 mps 746 mmHg 96%
    23:00 +25°C° 0.1 mm 1 mps 746 mmHg 96%

    Tomorrow, 24 March, Friday

    Time Temperature Precipitation Wind Pressure Humidity
    00:00 +25°C° 0.1 mm 1 mps 746 mmHg 95%
    01:00 +25°C° 0.1 mm 1 mps 746 mmHg 95%
    02:00 +25°C° 0.3 mm 2 mps 745 mmHg 94%
    03:00 +25°C° 0.3 mm 2 mps 745 mmHg 94%
    04:00 +25°C° 0.3 mm 2 mps 745 mmHg 94%
    05:00 +25°C° 0.2 mm 2 mps 745 mmHg 93%
    06:00 +26°C° 0.2 mm 2 mps 746 mmHg 92%
    07:00 +26°C° 0.2 mm 2 mps 746 mmHg 91%
    08:00 +27°C° 0.9 mm 3 mps 746 mmHg 85%
    09:00 +29°C° 0.9 mm 3 mps 746 mmHg 80%
    10:00 +31°C° 0.9 mm 3 mps 747 mmHg 74%
    11:00 +32°C° 0.8 mm 4 mps 746 mmHg 74%
    12:00 +32°C° 0.8 mm 4 mps 746 mmHg 74%
    13:00 +32°C° 0.8 mm 4 mps 745 mmHg 74%
    14:00 +32°C° 0.6 mm 4 mps 745 mmHg 75%
    15:00 +30°C° 0.6 mm 5 mps 745 mmHg 77%
    16:00 +30°C° 0.6 mm 5 mps 744 mmHg 79%
    17:00 +29°C° 0.1 mm 4 mps 745 mmHg 83%
    18:00 +28°C° 0.1 mm 4 mps 745 mmHg 86%
    19:00 +27°C° 0.1 mm 3 mps 745 mmHg 90%
    20:00 +26°C° 0.9 mm 3 mps 746 mmHg 91%
    21:00 +26°C° 0.9 mm 3 mps 746 mmHg 91%
    22:00 +26°C° 0.9 mm 3 mps 747 mmHg 92%
    23:00 +26°C° 0.8 mm 3 mps 747 mmHg 93%

    Day after tomorrow, 25 March, Saturday

    Time Temperature Precipitation Wind Pressure Humidity
    00:00 +26°C° 0.8 mm 3 mps 746 mmHg 93%
    01:00 +25°C° 0.8 mm 3 mps 746 mmHg 94%
    02:00 +25°C° 0.3 mm 4 mps 745 mmHg 94%
    03:00 +25°C° 0.3 mm 4 mps 745 mmHg 94%
    04:00 +25°C° 0.3 mm 4 mps 745 mmHg 94%
    05:00 +25°C° 0.5 mm 4 mps 745 mmHg 92%
    06:00 +26°C° 0.5 mm 4 mps 745 mmHg 91%
    07:00 +26°C° 0.5 mm 5 mps 746 mmHg 90%
    08:00 +27°C° 0.3 mm 5 mps 746 mmHg 83%
    09:00 +29°C° 0.3 mm 5 mps 746 mmHg 76%
    10:00 +32°C° 0.3 mm 5 mps 746 mmHg 69%
    11:00 +32°C° 1 mm 5 mps 746 mmHg 69%
    12:00 +33°C° 1 mm 5 mps 745 mmHg 68%
    13:00 +33°C° 1 mm 5 mps 745 mmHg 68%
    14:00 +32°C° 2.8 mm 6 mps 744 mmHg 73%
    15:00 +32°C° 2.8 mm 6 mps 744 mmHg 79%
    16:00 +30°C° 2.8 mm 6 mps 743 mmHg 84%
    17:00 +29°C° 2.4 mm 6 mps 744 mmHg 88%
    18:00 +28°C° 2.4 mm 6 mps 744 mmHg 91%
    19:00 +27°C° 2.4 mm 5 mps 745 mmHg 94%
    20:00 +26°C° 1.6 mm 5 mps 745 mmHg 94%
    21:00 +26°C° 1.6 mm 5 mps 745 mmHg 93%
    22:00 +26°C° 1.6 mm 5 mps 746 mmHg 93%
    23:00 +26°C° 0.4 mm 6 mps 745 mmHg 92%

    26 March, Sunday

    Time Temperature Precipitation Wind Pressure Humidity
    00:00 +26°C° 0.4 mm 6 mps 745 mmHg 91%
    01:00 +26°C° 0.4 mm 6 mps 745 mmHg 91%
    02:00 +26°C° 1.2 mm 6 mps 744 mmHg 90%
    03:00 +24°C° 1.2 mm 6 mps 744 mmHg 90%
    04:00 +24°C° 1.2 mm 6 mps 744 mmHg 90%
    05:00 +24°C° 1 mm 7 mps 744 mmHg 90%
    06:00 +24°C° 1 mm 7 mps 744 mmHg 91%
    07:00 +26°C° 1 mm 7 mps 744 mmHg 91%
    08:00 +27°C° 0.8 mm 7 mps 744 mmHg 86%
    09:00 +28°C° 0.8 mm 7 mps 745 mmHg 82%
    10:00 +29°C° 0.8 mm 8 mps 745 mmHg 77%
    11:00 +28°C° 1.7 mm 8 mps 744 mmHg 81%
    12:00 +28°C° 1.7 mm 8 mps 743 mmHg 84%
    13:00 +28°C° 1.7 mm 8 mps 742 mmHg 88%
    14:00 +28°C° 2.3 mm 8 mps 742 mmHg 89%
    15:00 +28°C° 2.3 mm 8 mps 741 mmHg 89%
    16:00 +28°C° 2.3 mm 8 mps 741 mmHg 90%
    17:00 +27°C° 5.2 mm 8 mps 741 mmHg 92%
    18:00 +27°C° 5.2 mm 8 mps 741 mmHg 94%
    19:00 +27°C° 5.2 mm 8 mps 742 mmHg 96%
    20:00 +27°C° 5.3 mm 9 mps 742 mmHg 96%
    21:00 +27°C° 5.3 mm 9 mps 742 mmHg 96%
    22:00 +27°C° 5.3 mm 10 mps 742 mmHg 96%
    23:00 +27°C° 6.9 mm 9 mps 742 mmHg 96%

    27 March, Monday

    Time Temperature Precipitation Wind Pressure Humidity
    00:00 +27°C° 6.9 mm 8 mps 742 mmHg 96%
    01:00 +27°C° 6.9 mm 7 mps 741 mmHg 97%
    02:00 +27°C° 5.3 mm 6 mps 741 mmHg 97%
    03:00 +27°C° 5.3 mm 6 mps 740 mmHg 97%
    04:00 +27°C° 5.3 mm 5 mps 740 mmHg 97%
    05:00 +27°C° 4.1 mm 5 mps 740 mmHg 97%
    06:00 +27°C° 4.1 mm 5 mps 741 mmHg 97%
    07:00 +27°C° 4.1 mm 6 mps 741 mmHg 97%
    08:00 +27°C° 2.1 mm 6 mps 741 mmHg 96%
    09:00 +28°C° 2.1 mm 6 mps 741 mmHg 95%
    10:00 +28°C° 2.1 mm 6 mps 742 mmHg 95%
    11:00 +28°C° 1.2 mm 6 mps 741 mmHg 95%
    12:00 +28°C° 1.2 mm 6 mps 741 mmHg 94%
    13:00 +29°C° 1.2 mm 6 mps 741 mmHg 94%
    14:00 +28°C° 1.5 mm 6 mps 740 mmHg 94%
    15:00 +28°C° 1.5 mm 6 mps 740 mmHg 95%
    16:00 +28°C° 1.5 mm 6 mps 740 mmHg 96%
    17:00 +27°C° 2.4 mm 5 mps 741 mmHg 96%
    18:00 +27°C° 2.4 mm 5 mps 741 mmHg 96%
    19:00 +27°C° 2.4 mm 5 mps 742 mmHg 96%
    20:00 +27°C° 1.7 mm 5 mps 742 mmHg 96%
    21:00 +27°C° 1.7 mm 4 mps 743 mmHg 96%
    22:00 +27°C° 1.7 mm 4 mps 743 mmHg 96%
    23:00 +26°C° 2.2 mm 4 mps 743 mmHg 96%

    28 March, Tuesday

    Time Temperature Precipitation Wind Pressure Humidity
    00:00 +26°C° 2.2 mm 4 mps 743 mmHg 96%
    01:00 +26°C° 2.2 mm 4 mps 742 mmHg 96%
    02:00 +26°C° 2.1 mm 4 mps 742 mmHg 96%
    03:00 +26°C° 2.1 mm 4 mps 742 mmHg 97%
    04:00 +26°C° 2.1 mm 4 mps 742 mmHg 97%
    05:00 +26°C° 1.6 mm 4 mps 743 mmHg 96%
    06:00 +26°C° 1.6 mm 4 mps 744 mmHg 96%
    07:00 +26°C° 1.6 mm 3 mps 744 mmHg 96%
    08:00 +27°C° 1.2 mm 3 mps 744 mmHg 92%
    09:00 +28°C° 1.2 mm 3 mps 745 mmHg 88%
    10:00 +30°C° 1.2 mm 3 mps 745 mmHg 85%
    11:00 +30°C° 0.6 mm 3 mps 744 mmHg 82%
    12:00 +31°C° 0.6 mm 3 mps 744 mmHg 79%
    13:00 +31°C° 0.6 mm 3 mps 743 mmHg 77%
    14:00 +31°C° 1.4 mm 3 mps 743 mmHg 81%
    15:00 +30°C° 1.4 mm 3 mps 743 mmHg 85%
    16:00 +30°C° 1.4 mm 3 mps 743 mmHg 89%
    17:00 +29°C° 1.7 mm 3 mps 743 mmHg 91%
    18:00 +27°C° 1.7 mm 3 mps 744 mmHg 93%
    19:00 +26°C° 1.7 mm 3 mps 744 mmHg 95%
    20:00 +26°C° 1.3 mm 3 mps 744 mmHg 95%
    21:00 +26°C° 1.3 mm 3 mps 745 mmHg 95%
    22:00 +26°C° 1.3 mm 2 mps 745 mmHg 95%
    23:00 +26°C° 0.3 mm 2 mps 745 mmHg 96%
    Show more